Weather History for Santa Maria, CA

Change the Weather History Date:

Wednesday, February 12, 2014

  Actual Average Record
Temperature  
Mean Temperature 59 °F 53 °F  
Max Temperature 73 °F 64 °F 87 °F (1943)
Min Temperature 44 °F 42 °F 27 °F (1964)
Degree Days  
Heating Degree Days 6 12  
Month to date heating degree days 122 152  
Since 1 July heating degree days 1056 1644  
Cooling Degree Days 0 0  
Month to date cooling degree days 0 0  
Year to date cooling degree days 2 0  
Growing Degree Days 8 (Base 50)    
Moisture  
Dew Point 46 °F    
Average Humidity 65    
Maximum Humidity 89    
Minimum Humidity 40    
Precipitation  
Precipitation 0.00 in 0.10 in 1.65 in (1992)
Month to date precipitation 0.43 1.24  
Year to date precipitation 0.44 3.99  
Since 1 July precipitation 0.94 8.23  
Sea Level Pressure  
Sea Level Pressure 30.15 in    
Wind  
Wind Speed 4 mph (West)    
Max Wind Speed 12 mph    
Max Gust Speed -    
Visibility 9 miles    
Events      
T = Trace of Precipitation, MM = Missing Value Source: NWS Daily Summary

Daily Weather History Graph

Daily Weather History Graph

Search for Another Location

Airport:

Trip Planner

Search our weather history database for the weather conditions in past years. The results will help you decide how hot, cold, wet, or windy it might be!

Date:

Astronomy

Feb. 12, 2014 Rise Set
Actual Time 6:50 AM PST 5:41 PM PST
Civil Twilight 6:24 AM PST 6:07 PM PST
Nautical Twilight 5:54 AM PST 6:37 PM PST
Astronomical Twilight 5:25 AM PST 7:07 PM PST
Moon 4:01 PM PST (2/12) 5:08 AM PST (2/12)
Length of Visible Light 11h 43m
Length of Day
10h 51m
Waxing Gibbous, 96% of the Moon is Illuminated
Feb 12
Waxing Gibbous
Feb 14
Full
Feb 22
Last Quarter
Mar 1
New
Mar 8
First Quarter

Hourly Weather History & Observations

Time (PST) Temp. Windchill Dew Point Humidity Pressure Visibility Wind Dir Wind Speed Gust Speed Precip Events Conditions
12:51 AM 53.1 °F - 48.9 °F 86% 30.17 in 7.0 mi Calm Calm - N/A   Clear
1:51 AM 50.0 °F - 46.0 °F 86% 30.17 in 8.0 mi Calm Calm - N/A   Clear
2:51 AM 48.0 °F - 44.1 °F 86% 30.16 in 9.0 mi ESE 3.5 mph - N/A   Clear
3:51 AM 46.9 °F - 43.0 °F 86% 30.14 in 10.0 mi SSE 4.6 mph - N/A   Clear
4:51 AM 46.0 °F 44.8 °F 41.0 °F 83% 30.16 in 10.0 mi South 3.5 mph - N/A   Clear
5:51 AM 46.9 °F - 41.0 °F 80% 30.16 in 10.0 mi ESE 3.5 mph - N/A   Clear
6:51 AM 45.0 °F - 39.0 °F 80% 30.16 in 10.0 mi Calm Calm - N/A   Partly Cloudy
7:51 AM 48.9 °F - 43.0 °F 80% 30.17 in 10.0 mi Calm Calm - N/A   Clear
8:51 AM 57.9 °F - 43.0 °F 58% 30.19 in 10.0 mi Calm Calm - N/A   Scattered Clouds
9:51 AM 61.0 °F - 43.0 °F 52% 30.20 in 10.0 mi Variable 3.5 mph - N/A   Scattered Clouds
10:51 AM 66.9 °F - 41.0 °F 39% 30.19 in 10.0 mi Calm Calm - N/A   Scattered Clouds
11:51 AM 71.1 °F - 50.0 °F 47% 30.17 in 10.0 mi NW 9.2 mph - N/A   Scattered Clouds
12:51 PM 68.0 °F - 51.1 °F 55% 30.15 in 10.0 mi NW 11.5 mph - N/A   Scattered Clouds
1:51 PM 68.0 °F - 50.0 °F 52% 30.12 in 10.0 mi Variable 6.9 mph - N/A   Mostly Cloudy
2:51 PM 68.0 °F - 50.0 °F 52% 30.11 in 10.0 mi NW 10.4 mph - N/A   Mostly Cloudy
3:51 PM 64.9 °F - 51.1 °F 61% 30.10 in 10.0 mi NW 9.2 mph - N/A   Scattered Clouds
4:51 PM 62.1 °F - 50.0 °F 65% 30.12 in 10.0 mi WNW 5.8 mph - N/A   Scattered Clouds
5:51 PM 57.0 °F - 50.0 °F 77% 30.12 in 7.0 mi WNW 4.6 mph - N/A   Scattered Clouds
6:51 PM 55.9 °F - 50.0 °F 80% 30.13 in 9.0 mi Calm Calm - N/A   Scattered Clouds
7:51 PM 55.0 °F - 48.9 °F 80% 30.13 in 8.0 mi Calm Calm - N/A   Clear
8:51 PM 53.1 °F - 48.9 °F 86% 30.14 in 6.0 mi Calm Calm - N/A   Clear
9:51 PM 52.0 °F - 48.9 °F 89% 30.14 in 6.0 mi North - - N/A   Clear
10:51 PM 51.1 °F - 46.9 °F 86% 30.14 in 6.0 mi SE 3.5 mph - N/A   Clear
11:51 PM 48.9 °F - 46.0 °F 90% 30.14 in 7.0 mi Calm Calm - N/A   Clear